QPF
0.00 0.00 0.00 0.00 0.00 0.01 0.01 0.02 0.02 0.02 0.01 0.01 0.01 0.00 0.00 0.00 0.00 0.00 0.00 0.00 0.00 0.03 0.07 0.07 0.04 0.01 0.00 0.00 0.00 0.00 0.00 0.00 0.00 0.00 0.00 0.00 0.00 0.00 0.00 0.00 0.00 0.00 0.00
0.00 0.00 0.00 0.00 0.00 0.01 0.01 0.02 0.02 0.01 0.01 0.01 0.00 0.00 0.00 0.00 0.00 0.00 0.00 0.01 0.02 0.04 0.08 0.07 0.03 0.01 0.00 0.00 0.00 0.00 0.00 0.00 0.00 0.00 0.00 0.00 0.00 0.00 0.00 0.00 0.00 0.00 0.00
0.00 0.00 0.00 0.00 0.00 0.01 0.01 0.02 0.01 0.00 0.00 0.00 0.00 0.00 0.00 0.00 0.00 0.01 0.01 0.02 0.03 0.06 0.07 0.04 0.01 0.00 0.00 0.00 0.00 0.00 0.00 0.00 0.00 0.00 0.00 0.00 0.00 0.00 0.00 0.00 0.00 0.00 0.00
0.00 0.00 0.00 0.00 0.00 0.01 0.01 0.01 0.01 0.00 0.00 0.00 0.00 0.00 0.00 0.00 0.00 0.01 0.02 0.02 0.03 0.04 0.03 0.01 0.00 0.00 0.00 0.00 0.00 0.00 0.00 0.00 0.00 0.00 0.00 0.00 0.00 0.00 0.00 0.00 0.00 0.00 0.00
0.00 0.00 0.00 0.00 0.00 0.01 0.01 0.01 0.01 0.00 0.00 0.00 0.00 0.00 0.00 0.00 0.01 0.01 0.01 0.01 0.02 0.01 0.01 0.00 0.00 0.00 0.00 0.00 0.00 0.00 0.00 0.00 0.00 0.00 0.00 0.00 0.00 0.01 0.02 0.01 0.02 0.01 0.01
0.00 0.00 0.00 0.00 0.00 0.01 0.00 0.00 0.01 0.01 0.00 0.00 0.00 0.00 0.00 0.00 0.01 0.01 0.00 0.00 0.00 0.00 0.00 0.00 0.00 0.00 0.00 0.00 0.00 0.00 0.00 0.00 0.00 0.00 0.00 0.00 0.01 0.03 0.02 0.02 0.03 0.03 0.04
0.00 0.00 0.00 0.00 0.00 0.00 0.00 0.00 0.00 0.01 0.00 0.00 0.00 0.00 0.00 0.00 0.00 0.00 0.00 0.00 0.00 0.00 0.00 0.00 0.00 0.00 0.00 0.00 0.00 0.00 0.00 0.00 0.00 0.00 0.00 0.01 0.03 0.06 0.06 0.05 0.05 0.05 0.04
0.00 0.00 0.00 0.00 0.00 0.00 0.00 0.00 0.01 0.01 0.00 0.00 0.00 0.00 0.00 0.00 0.00 0.00 0.00 0.00 0.00 0.00 0.00 0.00 0.00 0.00 0.00 0.00 0.00 0.00 0.00 0.00 0.00 0.00 0.01 0.02 0.04 0.06 0.05 0.02 0.02 0.02 0.01
0.00 0.00 0.00 0.00 0.00 0.00 0.00 0.00 0.00 0.01 0.01 0.00 0.00 0.00 0.00 0.00 0.00 0.00 0.00 0.00 0.00 0.00 0.00 0.00 0.00 0.00 0.00 0.00 0.00 0.00 0.00 0.00 0.00 0.00 0.00 0.02 0.03 0.03 0.01 0.00 0.00 0.00 0.00
0.00 0.00 0.00 0.00 0.00 0.00 0.00 0.00 0.00 0.00 0.00 0.00 0.00 0.00 0.00 0.00 0.00 0.00 0.00 0.00 0.00 0.00 0.00 0.00 0.00 0.00 0.00 0.00 0.00 0.00 0.00 0.00 0.00 0.00 0.00 0.01 0.01 0.01 0.00 0.00 0.00 0.00 0.00
0.00 0.00 0.00 0.00 0.00 0.00 0.00 0.00 0.00 0.00 0.00 0.00 0.00 0.00 0.00 0.00 0.00 0.00 0.00 0.00 0.00 0.00 0.00 0.00 0.00 0.00 0.00 0.00 0.00 0.00 0.00 0.00 0.00 0.00 0.00 0.00 0.00 0.00 0.00 0.00 0.00 0.00 0.00
0.01 0.00 0.00 0.00 0.00 0.00 0.00 0.00 0.00 0.00 0.00 0.00 0.00 0.00 0.00 0.00 0.00 0.00 0.00 0.00 0.00 0.00 0.00 0.00 0.00 0.00 0.00 0.00 0.00 0.00 0.00 0.00 0.00 0.00 0.00 0.00 0.00 0.00 0.00 0.00 0.00 0.00 0.00
0.00 0.00 0.00 0.00 0.00 0.00 0.00 0.00 0.00 0.00 0.00 0.00 0.00 0.00 0.00 0.00 0.00 0.00 0.00 0.00 0.00 0.00 0.00 0.00 0.00 0.00 0.00 0.00 0.00 0.00 0.00 0.00 0.00 0.00 0.00 0.00 0.00 0.00 0.00 0.00 0.00 0.00 0.00
0.00 0.00 0.00 0.00 0.00 0.00 0.00 0.00 0.00 0.00 0.00 0.00 0.00 0.00 0.00 0.00 0.00 0.00 0.00 0.00 0.00 0.00 0.00 0.00 0.00 0.00 0.00 0.00 0.00 0.00 0.00 0.00 0.00 0.00 0.00 0.00 0.00 0.00 0.00 0.00 0.00 0.00 0.00
0.00 0.00 0.00 0.00 0.00 0.00 0.00 0.00 0.00 0.00 0.00 0.00 0.00 0.00 0.00 0.00 0.00 0.00 0.00 0.00 0.00 0.00 0.00 0.00 0.00 0.00 0.00 0.00 0.00 0.00 0.00 0.00 0.00 0.00 0.00 0.00 0.00 0.00 0.00 0.00 0.00 0.00 0.00
0.00 0.00 0.00 0.00 0.00 0.00 0.00 0.00 0.00 0.00 0.00 0.00 0.00 0.00 0.00 0.00 0.00 0.00 0.00 0.00 0.00 0.00 0.00 0.00 0.00 0.00 0.00 0.00 0.00 0.00 0.00 0.00 0.00 0.00 0.00 0.00 0.00 0.00 0.00 0.00 0.00 0.00 0.00
0.00 0.00 0.00 0.00 0.00 0.00 0.01 0.01 0.01 0.01 0.00 0.00 0.00 0.00 0.00 0.00 0.00 0.00 0.00 0.00 0.00 0.00 0.00 0.00 0.00 0.00 0.00 0.00 0.00 0.00 0.00 0.00 0.00 0.00 0.00 0.00 0.00 0.00 0.00 0.00 0.00 0.00 0.00
0.00 0.00 0.00 0.00 0.00 0.00 0.00 0.01 0.01 0.01 0.01 0.00 0.01 0.00 0.00 0.00 0.00 0.00 0.00 0.00 0.00 0.00 0.00 0.00 0.00 0.00 0.00 0.00 0.00 0.00 0.00 0.00 0.00 0.00 0.00 0.00 0.00 0.00 0.00 0.00 0.00 0.00 0.00
0.00 0.00 0.00 0.00 0.00 0.00 0.00 0.01 0.01 0.01 0.01 0.01 0.01 0.00 0.00 0.00 0.01 0.00 0.00 0.00 0.00 0.00 0.00 0.00 0.00 0.00 0.00 0.00 0.00 0.00 0.00 0.00 0.00 0.00 0.00 0.00 0.00 0.00 0.00 0.00 0.00 0.00 0.00
0.00 0.00 0.00 0.00 0.00 0.00 0.00 0.00 0.01 0.01 0.00 0.00 0.00 0.01 0.01 0.01 0.02 0.01 0.00 0.01 0.00 0.00 0.00 0.00 0.00 0.00 0.00 0.00 0.00 0.00 0.00 0.00 0.00 0.00 0.00 0.00 0.00 0.00 0.00 0.00 0.00 0.00 0.00
0.00 0.00 0.00 0.00 0.00 0.00 0.00 0.00 0.01 0.01 0.00 0.00 0.01 0.01 0.02 0.02 0.02 0.03 0.02 0.02 0.01 0.00 0.00 0.00 0.00 0.00 0.00 0.00 0.00 0.00 0.00 0.00 0.00 0.00 0.00 0.00 0.00 0.00 0.00 0.00 0.00 0.00 0.00
0.00 0.00 0.00 0.00 0.00 0.00 0.00 0.00 0.00 0.00 0.00 0.00 0.01 0.01 0.01 0.01 0.02 0.02 0.02 0.02 0.02 0.01 0.01 0.00 0.00 0.00 0.00 0.00 0.00 0.00 0.00 0.00 0.00 0.00 0.00 0.00 0.00 0.00 0.00 0.00 0.00 0.00 0.00
0.00 0.00 0.00 0.00 0.00 0.00 0.00 0.00 0.00 0.00 0.01 0.01 0.01 0.00 0.00 0.01 0.02 0.02 0.03 0.04 0.03 0.02 0.01 0.01 0.01 0.00 0.00 0.00 0.00 0.00 0.00 0.00 0.00 0.00 0.00 0.00 0.00 0.00 0.00 0.00 0.00 0.00 0.00
0.00 0.00 0.00 0.00 0.00 0.00 0.00 0.00 0.00 0.00 0.00 0.00 0.00 0.00 0.00 0.01 0.02 0.03 0.04 0.05 0.05 0.05 0.04 0.03 0.03 0.02 0.02 0.01 0.01 0.00 0.00 0.00 0.00 0.00 0.00 0.00 0.00 0.00 0.00 0.00 0.00 0.00 0.00
0.00 0.00 0.00 0.00 0.00 0.00 0.00 0.00 0.00 0.00 0.00 0.00 0.00 0.01 0.01 0.01 0.01 0.03 0.04 0.04 0.05 0.05 0.07 0.08 0.08 0.07 0.05 0.03 0.02 0.02 0.01 0.00 0.00 0.00 0.00 0.00 0.00 0.00 0.00 0.00 0.00 0.00 0.00
0.00 0.00 0.00 0.00 0.00 0.00 0.00 0.00 0.00 0.00 0.00 0.00 0.00 0.00 0.01 0.01 0.01 0.02 0.03 0.03 0.04 0.06 0.08 0.11 0.12 0.12 0.12 0.09 0.06 0.04 0.03 0.02 0.01 0.01 0.01 0.00 0.00 0.00 0.00 0.00 0.00 0.00 0.00
MSLP
1013.66 1013.77 1014.01 1014.36 1014.78 1015.19 1015.58 1015.91 1016.16 1016.35 1016.51 1016.65 1016.80 1016.97 1017.15 1017.33 1017.49 1017.61 1017.68 1017.72 1017.74 1017.76 1017.81 1017.89 1018.02 1018.18 1018.34 1018.49 1018.61 1018.69 1018.72 1018.72 1018.71 1018.69 1018.69 1018.70 1018.72 1018.73 1018.74 1018.72 1018.69 1018.65 1018.62
1013.63 1013.78 1014.05 1014.44 1014.88 1015.34 1015.75 1016.11 1016.38 1016.59 1016.75 1016.89 1017.03 1017.19 1017.36 1017.52 1017.66 1017.77 1017.84 1017.88 1017.91 1017.96 1018.04 1018.17 1018.34 1018.54 1018.74 1018.91 1019.02 1019.07 1019.06 1019.01 1018.93 1018.87 1018.82 1018.81 1018.83 1018.85 1018.88 1018.90 1018.90 1018.88 1018.86
1013.56 1013.75 1014.06 1014.48 1014.96 1015.44 1015.89 1016.28 1016.58 1016.81 1017.00 1017.15 1017.30 1017.45 1017.61 1017.76 1017.89 1017.98 1018.03 1018.07 1018.10 1018.15 1018.26 1018.41 1018.62 1018.84 1019.06 1019.23 1019.33 1019.34 1019.29 1019.19 1019.06 1018.96 1018.89 1018.86 1018.89 1018.94 1019.00 1019.06 1019.10 1019.11 1019.10
1013.48 1013.72 1014.07 1014.52 1015.02 1015.53 1016.00 1016.42 1016.75 1017.02 1017.23 1017.40 1017.57 1017.73 1017.89 1018.03 1018.15 1018.22 1018.27 1018.29 1018.31 1018.37 1018.48 1018.65 1018.86 1019.10 1019.31 1019.47 1019.55 1019.54 1019.45 1019.31 1019.15 1019.02 1018.93 1018.91 1018.95 1019.03 1019.13 1019.23 1019.30 1019.34 1019.36
1013.45 1013.74 1014.12 1014.59 1015.10 1015.62 1016.11 1016.54 1016.89 1017.18 1017.42 1017.63 1017.82 1018.00 1018.17 1018.32 1018.43 1018.50 1018.54 1018.55 1018.58 1018.63 1018.74 1018.90 1019.11 1019.34 1019.54 1019.68 1019.74 1019.70 1019.59 1019.42 1019.25 1019.11 1019.03 1019.01 1019.07 1019.17 1019.30 1019.43 1019.54 1019.61 1019.64
1013.54 1013.85 1014.25 1014.72 1015.22 1015.73 1016.22 1016.64 1017.01 1017.31 1017.57 1017.80 1018.02 1018.23 1018.42 1018.58 1018.71 1018.79 1018.84 1018.86 1018.88 1018.94 1019.04 1019.19 1019.38 1019.59 1019.76 1019.88 1019.91 1019.86 1019.74 1019.57 1019.40 1019.27 1019.20 1019.20 1019.28 1019.40 1019.55 1019.70 1019.82 1019.90 1019.95
1013.76 1014.08 1014.47 1014.92 1015.40 1015.88 1016.33 1016.74 1017.10 1017.41 1017.68 1017.93 1018.16 1018.40 1018.62 1018.81 1018.96 1019.07 1019.14 1019.18 1019.22 1019.27 1019.37 1019.51 1019.67 1019.85 1020.00 1020.09 1020.10 1020.04 1019.91 1019.76 1019.61 1019.50 1019.46 1019.49 1019.58 1019.72 1019.88 1020.03 1020.15 1020.24 1020.29
1014.11 1014.41 1014.77 1015.17 1015.61 1016.05 1016.46 1016.84 1017.17 1017.46 1017.73 1017.99 1018.25 1018.51 1018.75 1018.98 1019.17 1019.31 1019.41 1019.48 1019.53 1019.60 1019.70 1019.82 1019.97 1020.11 1020.22 1020.28 1020.28 1020.21 1020.10 1019.97 1019.86 1019.79 1019.78 1019.84 1019.96 1020.10 1020.26 1020.41 1020.52 1020.61 1020.66
1014.53 1014.79 1015.10 1015.45 1015.83 1016.21 1016.58 1016.91 1017.22 1017.49 1017.75 1018.01 1018.27 1018.55 1018.81 1019.07 1019.29 1019.46 1019.60 1019.70 1019.79 1019.88 1019.98 1020.09 1020.21 1020.32 1020.40 1020.44 1020.42 1020.35 1020.25 1020.16 1020.09 1020.07 1020.11 1020.21 1020.35 1020.52 1020.68 1020.82 1020.92 1020.99 1021.04
1014.94 1015.15 1015.40 1015.69 1016.01 1016.34 1016.66 1016.96 1017.23 1017.48 1017.73 1017.98 1018.25 1018.52 1018.80 1019.07 1019.31 1019.52 1019.69 1019.82 1019.94 1020.05 1020.16 1020.27 1020.37 1020.46 1020.51 1020.52 1020.49 1020.42 1020.34 1020.28 1020.26 1020.29 1020.39 1020.54 1020.72 1020.91 1021.08 1021.22 1021.32 1021.38 1021.42
1015.26 1015.41 1015.60 1015.84 1016.11 1016.40 1016.68 1016.95 1017.20 1017.43 1017.67 1017.91 1018.16 1018.43 1018.70 1018.97 1019.22 1019.45 1019.64 1019.81 1019.95 1020.08 1020.21 1020.32 1020.43 1020.50 1020.53 1020.52 1020.48 1020.41 1020.35 1020.32 1020.35 1020.44 1020.59 1020.80 1021.02 1021.25 1021.44 1021.59 1021.69 1021.76 1021.79
1015.41 1015.51 1015.66 1015.86 1016.10 1016.36 1016.62 1016.87 1017.11 1017.33 1017.56 1017.79 1018.03 1018.28 1018.54 1018.79 1019.04 1019.26 1019.47 1019.65 1019.82 1019.98 1020.13 1020.26 1020.37 1020.44 1020.47 1020.45 1020.40 1020.35 1020.30 1020.30 1020.37 1020.51 1020.71 1020.97 1021.25 1021.52 1021.75 1021.92 1022.03 1022.10 1022.14
1015.37 1015.44 1015.56 1015.74 1015.96 1016.20 1016.46 1016.70 1016.94 1017.17 1017.39 1017.61 1017.83 1018.06 1018.30 1018.53 1018.75 1018.97 1019.18 1019.37 1019.57 1019.75 1019.93 1020.09 1020.22 1020.31 1020.35 1020.35 1020.31 1020.26 1020.24 1020.26 1020.35 1020.53 1020.78 1021.09 1021.41 1021.72 1021.99 1022.19 1022.33 1022.41 1022.46
1015.15 1015.20 1015.31 1015.48 1015.70 1015.94 1016.20 1016.45 1016.70 1016.93 1017.15 1017.36 1017.57 1017.78 1017.99 1018.20 1018.40 1018.60 1018.80 1019.01 1019.22 1019.44 1019.66 1019.86 1020.03 1020.16 1020.24 1020.26 1020.25 1020.22 1020.21 1020.25 1020.37 1020.57 1020.84 1021.17 1021.53 1021.87 1022.17 1022.41 1022.58 1022.68 1022.73
1014.78 1014.83 1014.95 1015.12 1015.33 1015.58 1015.85 1016.11 1016.36 1016.60 1016.83 1017.04 1017.24 1017.44 1017.63 1017.81 1018.00 1018.19 1018.39 1018.60 1018.83 1019.08 1019.35 1019.60 1019.83 1020.02 1020.15 1020.22 1020.25 1020.26 1020.27 1020.33 1020.45 1020.65 1020.93 1021.27 1021.63 1021.99 1022.31 1022.57 1022.76 1022.89 1022.96
1014.33 1014.39 1014.51 1014.69 1014.91 1015.16 1015.43 1015.70 1015.95 1016.20 1016.42 1016.64 1016.84 1017.03 1017.21 1017.38 1017.56 1017.75 1017.95 1018.17 1018.43 1018.72 1019.02 1019.33 1019.63 1019.89 1020.09 1020.23 1020.32 1020.37 1020.42 1020.49 1020.61 1020.80 1021.06 1021.38 1021.73 1022.08 1022.40 1022.67 1022.88 1023.03 1023.11
1013.88 1013.94 1014.07 1014.24 1014.46 1014.71 1014.97 1015.23 1015.48 1015.72 1015.95 1016.16 1016.36 1016.55 1016.74 1016.92 1017.10 1017.29 1017.50 1017.74 1018.02 1018.34 1018.69 1019.06 1019.42 1019.75 1020.03 1020.25 1020.41 1020.52 1020.61 1020.70 1020.81 1020.98 1021.21 1021.49 1021.80 1022.12 1022.43 1022.70 1022.92 1023.08 1023.20
1013.47 1013.53 1013.65 1013.81 1014.02 1014.25 1014.49 1014.73 1014.96 1015.19 1015.40 1015.61 1015.82 1016.02 1016.21 1016.41 1016.61 1016.81 1017.04 1017.30 1017.60 1017.94 1018.33 1018.74 1019.16 1019.56 1019.91 1020.21 1020.44 1020.62 1020.75 1020.86 1020.98 1021.13 1021.32 1021.55 1021.82 1022.10 1022.38 1022.64 1022.86 1023.05 1023.19
1013.14 1013.18 1013.28 1013.42 1013.60 1013.80 1014.01 1014.22 1014.42 1014.62 1014.82 1015.02 1015.22 1015.43 1015.64 1015.85 1016.07 1016.30 1016.55 1016.82 1017.14 1017.50 1017.90 1018.34 1018.79 1019.24 1019.66 1020.02 1020.32 1020.56 1020.75 1020.90 1021.03 1021.17 1021.33 1021.53 1021.75 1021.99 1022.24 1022.49 1022.72 1022.93 1023.10
1012.91 1012.92 1012.97 1013.08 1013.22 1013.38 1013.55 1013.72 1013.88 1014.05 1014.22 1014.39 1014.59 1014.79 1015.02 1015.25 1015.49 1015.74 1016.00 1016.29 1016.61 1016.97 1017.38 1017.82 1018.28 1018.75 1019.21 1019.62 1019.98 1020.28 1020.52 1020.71 1020.87 1021.02 1021.17 1021.35 1021.55 1021.77 1022.01 1022.25 1022.50 1022.73 1022.95
1012.77 1012.72 1012.73 1012.79 1012.89 1013.01 1013.14 1013.26 1013.38 1013.50 1013.62 1013.76 1013.93 1014.13 1014.35 1014.59 1014.84 1015.11 1015.39 1015.68 1016.00 1016.35 1016.74 1017.16 1017.61 1018.08 1018.54 1018.98 1019.38 1019.72 1020.01 1020.25 1020.46 1020.64 1020.81 1021.00 1021.20 1021.43 1021.68 1021.95 1022.22 1022.49 1022.75
1012.71 1012.60 1012.55 1012.56 1012.62 1012.69 1012.78 1012.85 1012.92 1012.98 1013.06 1013.15 1013.27 1013.44 1013.64 1013.87 1014.13 1014.40 1014.69 1014.99 1015.30 1015.63 1016.00 1016.39 1016.81 1017.25 1017.69 1018.13 1018.54 1018.92 1019.25 1019.54 1019.79 1020.03 1020.26 1020.49 1020.74 1021.01 1021.30 1021.60 1021.92 1022.24 1022.55
1012.72 1012.54 1012.43 1012.40 1012.41 1012.44 1012.49 1012.52 1012.53 1012.53 1012.54 1012.57 1012.63 1012.74 1012.91 1013.11 1013.36 1013.63 1013.92 1014.21 1014.52 1014.84 1015.17 1015.53 1015.91 1016.31 1016.73 1017.14 1017.55 1017.93 1018.30 1018.63 1018.95 1019.25 1019.55 1019.86 1020.19 1020.53 1020.89 1021.26 1021.64 1022.02 1022.37
1012.78 1012.54 1012.38 1012.30 1012.27 1012.27 1012.27 1012.26 1012.22 1012.16 1012.09 1012.04 1012.03 1012.07 1012.17 1012.33 1012.55 1012.80 1013.09 1013.38 1013.69 1014.00 1014.32 1014.65 1014.99 1015.36 1015.73 1016.12 1016.51 1016.89 1017.27 1017.65 1018.02 1018.40 1018.79 1019.19 1019.61 1020.05 1020.51 1020.96 1021.42 1021.85 1022.25
1012.88 1012.59 1012.38 1012.26 1012.20 1012.17 1012.13 1012.07 1011.98 1011.85 1011.70 1011.57 1011.46 1011.42 1011.45 1011.55 1011.72 1011.95 1012.22 1012.52 1012.83 1013.15 1013.47 1013.80 1014.12 1014.46 1014.81 1015.17 1015.54 1015.91 1016.30 1016.71 1017.13 1017.58 1018.06 1018.56 1019.09 1019.64 1020.19 1020.74 1021.26 1021.75 1022.19
1013.02 1012.69 1012.45 1012.30 1012.21 1012.14 1012.07 1011.96 1011.81 1011.62 1011.39 1011.16 1010.97 1010.83 1010.77 1010.80 1010.91 1011.11 1011.37 1011.67 1011.99 1012.33 1012.67 1013.01 1013.35 1013.69 1014.03 1014.37 1014.73 1015.10 1015.50 1015.93 1016.39 1016.90 1017.45 1018.04 1018.67 1019.31 1019.96 1020.60 1021.19 1021.72 1022.19
Thickness
5772 5770 5763 5761 5758 5756 5754 5752 5750 5748 5746 5743 5741 5739 5737 5735 5734 5734 5733 5732 5731 5730 5729 5728 5726 5725 5723 5722 5720 5719 5718 5717 5716 5716 5715 5715 5714 5713 5712 5712 5713 5713 5710
5773 5768 5760 5758 5756 5754 5751 5749 5747 5744 5742 5740 5737 5735 5733 5732 5731 5730 5730 5729 5728 5726 5725 5723 5722 5720 5719 5717 5716 5714 5714 5713 5712 5711 5711 5711 5710 5709 5708 5707 5708 5708 5706
5769 5765 5758 5755 5753 5751 5748 5746 5743 5740 5738 5735 5733 5731 5729 5728 5727 5727 5726 5725 5723 5722 5720 5718 5716 5715 5714 5712 5711 5710 5709 5708 5707 5707 5708 5710 5707 5705 5704 5703 5703 5702 5701
5764 5761 5756 5751 5749 5747 5745 5742 5739 5736 5734 5731 5729 5727 5726 5724 5723 5723 5722 5720 5718 5716 5714 5712 5711 5709 5708 5707 5706 5705 5705 5703 5703 5704 5707 5706 5704 5701 5700 5699 5698 5698 5697
5759 5756 5752 5747 5745 5743 5741 5738 5735 5732 5730 5727 5725 5723 5721 5720 5719 5718 5716 5714 5712 5710 5708 5706 5705 5704 5702 5702 5701 5700 5700 5699 5699 5701 5701 5700 5699 5696 5695 5695 5694 5693 5692
5755 5752 5747 5743 5741 5738 5736 5734 5731 5728 5726 5723 5721 5719 5717 5715 5714 5712 5710 5708 5707 5705 5703 5701 5700 5698 5697 5696 5696 5695 5694 5694 5696 5697 5696 5695 5694 5691 5690 5689 5688 5688 5687
5751 5748 5742 5738 5736 5733 5731 5729 5727 5724 5722 5719 5716 5714 5712 5710 5709 5706 5704 5703 5701 5699 5698 5696 5695 5694 5693 5692 5691 5690 5689 5689 5692 5692 5691 5690 5687 5685 5684 5683 5682 5681 5680
5745 5742 5738 5732 5731 5728 5726 5724 5722 5719 5717 5714 5712 5710 5708 5706 5704 5701 5699 5698 5696 5695 5693 5692 5690 5689 5688 5687 5686 5685 5684 5684 5685 5686 5685 5683 5680 5679 5678 5676 5675 5673 5672
5739 5736 5733 5729 5726 5723 5721 5719 5717 5714 5712 5709 5707 5705 5703 5701 5699 5697 5695 5693 5692 5690 5689 5687 5686 5684 5683 5682 5681 5680 5679 5679 5682 5680 5678 5676 5673 5672 5670 5668 5667 5666 5665
5732 5731 5729 5726 5724 5720 5717 5713 5711 5709 5707 5704 5702 5700 5698 5696 5694 5692 5690 5689 5687 5686 5684 5682 5681 5680 5678 5677 5676 5675 5674 5674 5676 5674 5673 5668 5666 5664 5663 5661 5659 5658 5657
5723 5724 5724 5722 5719 5717 5715 5710 5707 5705 5702 5700 5697 5695 5693 5693 5691 5688 5687 5684 5683 5681 5679 5678 5676 5675 5673 5672 5671 5670 5669 5672 5671 5669 5666 5661 5659 5657 5655 5653 5652 5650 5649
5714 5717 5718 5717 5715 5712 5710 5707 5705 5702 5700 5697 5696 5693 5691 5691 5690 5687 5683 5680 5678 5677 5675 5673 5671 5670 5670 5669 5666 5665 5667 5666 5665 5663 5659 5655 5653 5650 5648 5646 5644 5643 5641
5712 5712 5712 5711 5710 5708 5705 5704 5703 5700 5698 5696 5695 5692 5690 5688 5686 5683 5681 5677 5675 5673 5672 5669 5667 5668 5667 5665 5664 5663 5662 5661 5660 5658 5654 5649 5647 5644 5641 5639 5637 5635 5634
5709 5708 5708 5707 5705 5703 5702 5701 5700 5698 5696 5694 5692 5690 5688 5686 5684 5682 5680 5677 5675 5672 5670 5668 5666 5664 5662 5660 5660 5659 5657 5656 5655 5652 5648 5643 5641 5638 5635 5632 5630 5628 5627
5705 5705 5705 5703 5702 5700 5698 5698 5697 5696 5694 5692 5689 5687 5686 5684 5682 5680 5678 5675 5673 5670 5667 5664 5663 5660 5658 5656 5655 5654 5652 5651 5649 5646 5642 5637 5635 5632 5629 5626 5624 5622 5620
5704 5704 5704 5702 5700 5698 5697 5695 5695 5694 5691 5690 5688 5686 5683 5682 5680 5678 5676 5673 5671 5667 5665 5662 5660 5657 5654 5652 5650 5648 5647 5646 5643 5641 5638 5632 5629 5626 5624 5621 5618 5616 5614
5703 5704 5704 5702 5700 5698 5696 5694 5692 5690 5689 5688 5686 5684 5682 5680 5678 5675 5673 5671 5668 5664 5661 5658 5656 5652 5649 5647 5645 5643 5641 5640 5637 5635 5632 5629 5624 5620 5618 5615 5613 5610 5607
5699 5701 5702 5701 5700 5698 5696 5693 5690 5688 5687 5686 5684 5683 5681 5678 5675 5673 5671 5668 5665 5661 5658 5655 5652 5648 5645 5642 5641 5638 5635 5632 5631 5629 5626 5623 5620 5616 5612 5609 5606 5604 5601
5695 5697 5698 5698 5698 5698 5695 5691 5688 5685 5684 5683 5682 5681 5679 5676 5673 5670 5669 5666 5662 5658 5655 5652 5648 5645 5642 5639 5636 5633 5631 5628 5626 5623 5621 5618 5614 5611 5608 5603 5600 5597 5595
5690 5692 5693 5694 5694 5694 5692 5689 5686 5683 5681 5679 5678 5677 5675 5673 5670 5667 5666 5663 5660 5655 5652 5649 5645 5641 5639 5634 5630 5627 5625 5623 5620 5618 5616 5613 5609 5606 5603 5599 5595 5591 5588
5682 5684 5686 5686 5688 5687 5686 5685 5682 5681 5679 5677 5675 5673 5671 5669 5666 5663 5662 5660 5657 5653 5650 5646 5641 5636 5632 5628 5623 5620 5618 5616 5616 5613 5611 5609 5605 5601 5597 5594 5591 5587 5583
5673 5675 5677 5679 5680 5680 5681 5681 5681 5680 5679 5677 5673 5670 5667 5664 5662 5659 5657 5655 5653 5650 5646 5643 5638 5633 5629 5623 5622 5617 5615 5613 5611 5609 5607 5604 5602 5597 5593 5589 5586 5581 5578
5663 5664 5666 5669 5670 5671 5672 5672 5672 5672 5671 5670 5669 5668 5666 5661 5657 5654 5651 5649 5647 5644 5642 5639 5635 5630 5626 5620 5620 5618 5617 5619 5615 5606 5603 5600 5597 5593 5588 5584 5579 5575 5571
5652 5653 5656 5658 5660 5661 5662 5663 5663 5664 5665 5666 5665 5664 5661 5657 5653 5649 5645 5642 5640 5638 5636 5634 5630 5627 5623 5617 5613 5613 5617 5620 5612 5605 5596 5593 5590 5587 5583 5577 5572 5567 5562
5642 5644 5646 5649 5651 5652 5653 5653 5653 5655 5657 5658 5658 5657 5655 5653 5649 5645 5640 5636 5633 5631 5630 5627 5624 5621 5620 5617 5611 5607 5603 5600 5604 5605 5598 5588 5580 5578 5574 5569 5564 5559 5553
5633 5635 5637 5639 5641 5642 5643 5643 5644 5645 5646 5646 5646 5646 5646 5645 5643 5639 5634 5630 5627 5625 5622 5620 5618 5614 5613 5611 5608 5603 5602 5599 5599 5596 5594 5584 5576 5569 5562 5558 5553 5548 5543